TIME,DELAY(SENSOR),PRES,T(CTD),SAL,OXYGEN,RAWTEMP,T(OPTODE),TCPHASE,TURBIDITY,TURBIDITY_GAIN,FLUOR,BETA,CDOM,CSC,CHECK
1349483938,8893,944.6900024414062000,7.1421999931335450,35.1026000976562500,216.1651000976562500,654.7124023437500000,7.1259207725524900,37.4217605590820300,15,3,51,86,62,15710,51816
1349484040,8892,934.2100219726562000,7.3793997764587400,35.1119003295898440,211.4965972900390600,647.7850952148438000,7.3543620109558105,37.5595588684082000,15,3,50,84,62,15710,6835
1349484154,8892,922.5000000000000000,7.5069999694824220,35.1197013854980500,207.1602020263672000,643.6317749023438000,7.4910597801208500,37.7356605529785160,16,3,50,84,63,15710,5733
1349484256,8894,911.7000122070312000,7.6563000679016110,35.1268997192382800,203.8072967529297000,638.9428710937500000,7.6451568603515625,37.8481216430664060,16,3,50,86,62,15710,41930
1349484358,8893,901.5200195312500000,7.8692002296447750,35.1414985656738300,198.7266998291015600,632.4628906250000000,7.8577160835266110,38.0380210876464840,16,3,50,82,64,15717,42219
1349484474,8893,890.5800170898438000,8.0228996276855470,35.1486015319824200,194.0897064208984400,627.5825195312500000,8.0174999237060550,38.2374992370605500,16,3,50,84,62,15716,36037
1349484602,8892,879.6799926757812000,8.2613000869750980,35.1642990112304700,189.0570068359375000,620.7401123046875000,8.2410907745361330,38.4339408874511700,16,3,50,84,63,15716,23379
1349484742,8892,868.0000000000000000,8.4461002349853520,35.1771011352539060,185.7975006103515600,614.8660278320312000,8.4326400756835940,38.5405502319335940,15,3,50,84,62,15716,55240
1349484870,8892,857.6300048828125000,8.6680002212524410,35.1949005126953100,183.1972045898437500,607.9492187500000000,8.6577320098876950,38.5902214050293000,15,3,50,82,64,15717,7238
1349485010,8893,846.0800170898438000,8.8136997222900390,35.2038993835449200,181.4568023681640600,603.1475219726562000,8.8136997222900390,38.6217994689941400,15,3,50,83,63,15716,42680
1349485138,8893,835.7399902343750000,8.9958000183105470,35.2125015258789060,179.2257995605468800,598.2410888671875000,8.9728279113769530,38.6863708496093750,16,3,50,85,62,15714,7039
1349485312,8892,821.4899902343750000,9.3275003433227540,35.2416000366210940,175.3488006591797000,587.2114257812500000,9.3296852111816400,38.7598609924316400,16,3,50,84,62,15716,46936
1349485416,8893,811.2100219726562000,9.5832996368408200,35.2677001953125000,174.4600067138672000,579.3994140625000000,9.5817146301269530,38.6874809265136700,16,3,50,84,62,15714,16904
1349485532,8892,799.5999755859375000,9.8823003768920900,35.2944984436035160,173.3374023437500000,570.6041870117188000,9.8647747039794920,38.6155815124511700,16,3,50,84,62,15714,51138
1349485667,8893,786.2999877929688000,10.1021003723144530,35.3185997009277340,172.4172058105468800,562.9827270507812000,10.1094799041748050,38.5514907836914060,15,3,50,82,62,15714,46938
1349485789,8892,775.9400024414062000,10.2361001968383790,35.3260002136230500,171.3836975097656200,559.3997192382812000,10.2243404388427730,38.5633010864257800,16,3,50,82,62,15712,10909
1349485917,8893,765.6400146484375000,10.3791999816894530,35.3328018188476560,168.6360931396484400,554.0917968750000000,10.3942804336547850,38.6695785522460940,16,3,50,84,62,15711,2686
1349486052,8894,754.4199829101562000,10.6222000122070310,35.3606986999511700,167.6632995605468800,547.0410766601562000,10.6196298599243160,38.6222305297851560,15,3,50,85,61,15712,20105
1349486168,8893,743.0300292968750000,10.9033002853393550,35.3931999206543000,167.8919067382812500,538.2921752929688000,10.8986701965332030,38.4595794677734400,16,3,50,84,62,15710,60966
1349486315,8893,728.6500244140625000,11.2800998687744140,35.4430999755859400,169.5511932373047000,526.5570068359375000,11.2719497680664060,38.1471405029296900,16,3,50,84,62,15710,36592
1349486461,8893,717.7899780273438000,11.5163002014160160,35.4752006530761700,171.3683929443359400,518.6668701171875000,11.5222902297973630,37.8890190124511700,16,3,50,85,62,15712,29215
1349486607,8894,706.4500122070312000,11.7862997055053710,35.5116996765136700,173.3923950195312500,510.0061950683594000,11.7965202331542970,37.6056404113769500,15,3,50,82,60,15712,43258
1349486735,8893,694.6799926757812000,12.0100002288818360,35.5437011718750000,176.0890045166015600,502.7337951660156000,12.0263500213623050,37.3004302978515600,15,3,50,82,60,15711,34333
1349486863,8893,682.9000244140625000,12.3709001541137700,35.5920982360839840,179.8459014892578000,491.8062133789062500,12.3709602355957030,36.8702316284179700,16,3,50,83,60,15712,29126
1349486979,8892,672.6400146484375000,12.4659996032714840,35.6011009216308600,177.8661041259765600,488.4625854492187500,12.4762296676635740,36.9509696960449200,15,3,50,83,60,15709,31695
1349487107,8893,661.0599975585938000,12.7451000213623050,35.6377983093261700,177.6289062500000000,479.8223876953125000,12.7478904724121100,36.8296699523925800,16,3,50,82,60,15710,50791
1349487235,8893,649.7399902343750000,13.0305995941162110,35.6839981079101560,181.9035949707031200,470.7479858398437500,13.0326595306396480,36.3998298645019500,15,3,50,84,60,15710,6359
1349487351,8893,639.4400024414062000,13.2274999618530270,35.7186012268066400,187.8997039794922000,464.0350036621094000,13.2429800033569340,35.9052009582519500,16,3,50,82,58,15712,42053
1349487479,8892,628.0399780273438000,13.5004997253417970,35.7620010375976560,192.7949981689453000,455.8150024414062500,13.5001201629638670,35.4700584411621100,15,3,50,82,60,15712,41817
1349487595,8893,617.4500122070312000,13.7103004455566400,35.7929992675781250,195.8927001953125000,449.0663146972656000,13.7109203338623050,35.1768684387207000,16,3,50,83,59,15712,55794
1349487723,8892,605.9099731445312000,14.0286998748779300,35.8434982299804700,199.5921936035156200,438.6611938476562500,14.0354003906250000,34.7959594726562500,16,3,50,82,59,15711,32928
1349487839,8893,595.7600097656250000,14.2512998580932620,35.8782005310058600,200.7474060058593800,430.6755065917969000,14.2840099334716800,34.6072311401367200,15,3,50,82,58,15711,7966
1349487967,8893,584.9199829101562000,14.4088001251220700,35.9048995971679700,203.5442047119140600,426.4346008300781000,14.4158897399902340,34.3803710937500000,15,3,50,82,58,15711,47673
1349488107,8894,573.6500244140625000,14.5150003433227540,35.9221000671386700,205.1813964843750000,422.0349121093750000,14.5526103973388670,34.2205390930175800,16,3,50,84,58,15710,30210
1349488242,8892,562.3099975585938000,14.7756996154785160,35.9664993286132800,205.9291992187500000,414.4721984863281000,14.7873897552490230,34.0657997131347660,16,3,50,82,58,15712,61744
1349488358,8892,550.9199829101562000,15.0171003341674800,36.0065002441406250,208.0998992919922000,406.6933898925781000,15.0285701751708980,33.8282089233398440,15,3,49,83,57,15709,22082
1349488505,8892,536.7500000000000000,15.2458000183105470,36.0465011596679700,210.2929992675781200,398.9706115722656000,15.2677202224731450,33.5932502746582000,15,3,50,83,57,15708,13866
1349488651,8892,525.7500000000000000,15.4777002334594730,36.0868988037109400,210.9492950439453000,392.0732116699219000,15.4810800552368160,33.4566993713378900,15,3,50,82,58,15708,34031
1349488795,8894,513.3099975585938000,15.8115997314453120,36.1455001831054700,213.5876007080078000,380.7279968261719000,15.8315601348876950,33.1493682861328100,16,3,50,84,58,15706,35229
1349488911,8893,501.4500122070312500,15.9744997024536130,36.1777000427246100,216.4302978515625000,375.6405029296875000,15.9885501861572270,32.9239501953125000,15,3,50,84,56,15704,38770
1349489022,8892,490.2600097656250000,16.1434001922607420,36.2080001831054700,217.6956024169922000,370.3349914550781000,16.1521606445312500,32.7815208435058600,16,3,50,82,56,15705,9157
1349489155,8892,479.1000061035156000,16.2341995239257800,36.2279014587402340,219.1986999511718800,366.4081115722656000,16.2731895446777340,32.6471595764160160,15,3,50,84,56,15706,17293
1349489283,8894,468.8800048828125000,16.4680004119873050,36.2695007324218750,221.7619018554687500,359.6611022949219000,16.4809894561767580,32.4193992614746100,15,3,50,82,56,15706,52517
1349489439,8892,455.2999877929687500,16.5268993377685550,36.2752990722656250,219.9598999023437500,357.7717895507812500,16.5391502380371100,32.4862289428710940,16,3,50,84,56,15700,48195
1349489555,8893,443.9500122070312500,16.7050991058349600,36.3063011169433600,218.0594940185547000,351.7648010253906000,16.7239894866943360,32.5014801025390600,16,3,50,84,56,15700,15041
1349489671,8892,433.0499877929687500,16.8756008148193360,36.3504981994628900,226.9064941406250000,346.5249023437500000,16.8851203918457030,31.9756908416748050,15,3,50,84,54,15700,52618
1349489787,8893,422.5400085449219000,16.9027004241943360,36.3502006530761700,228.1204986572265600,345.5533142089844000,16.9149894714355470,31.9022407531738280,16,3,50,84,54,15698,36414
1349489915,8893,411.7399902343750000,17.0643005371093750,36.3829994201660160,227.8791046142578000,340.3344116210937500,17.0753707885742200,31.8423500061035160,15,3,50,84,54,15700,5826
1349490055,8893,400.7099914550781000,17.1646003723144530,36.3933982849121100,224.9542999267578000,336.6333007812500000,17.1890506744384770,31.9377193450927730,16,3,48,82,55,15697,59786
1349490121,8893,395.6600036621094000,17.2096004486084000,36.3981018066406250,224.8063049316406200,335.5609130859375000,17.2219905853271500,31.9301490783691400,16,3,50,84,55,15696,32125
1349490220,8893,387.5599975585937500,17.3684005737304700,36.4333000183105500,227.0368041992187500,330.4638061523437500,17.3784809112548830,31.7489299774169920,15,3,50,86,54,15698,19140
1349490308,8891,379.4299926757812500,17.4965991973876950,36.4597015380859400,229.2642974853515600,326.1939086914062500,17.5095100402832030,31.5808696746826170,15,3,50,84,53,15696,13130
1349490376,8893,372.8800048828125000,17.6067008972167970,36.4831008911132800,233.7201995849609400,322.9108886718750000,17.6102294921875000,31.3203601837158200,16,3,50,83,52,15695,33855
1349490442,8893,366.5599975585937500,17.5729007720947270,36.4718017578125000,232.9445953369140600,323.6835937500000000,17.5865192413330080,31.3681907653808600,16,3,50,86,53,15696,53988
1349490510,8892,359.8699951171875000,17.6275005340576170,36.4849014282226560,233.0773010253906200,321.8952026367187500,17.6413803100585940,31.3374595642089840,16,3,50,82,54,15696,13526
1349490576,8892,353.2900085449219000,17.6681003570556640,36.4903984069824200,233.6145019531250000,320.0881042480469000,17.6968002319335940,31.2872905731201170,16,3,50,84,54,15694,50714
1349490644,8893,346.4400024414062500,17.8157005310058600,36.5169982910156250,235.1719055175781200,315.9197082519531000,17.8246097564697270,31.1570701599121100,16,3,50,84,54,15694,10205
1349490710,8892,339.7000122070312500,17.8514995574951170,36.5259017944335940,236.3668975830078000,314.7426147460937500,17.8606891632080080,31.0845909118652340,16,3,50,86,52,15694,59501
1349490809,8892,329.8699951171875000,17.8852005004882800,36.5285987854003900,235.8710021972656200,313.8474121093750000,17.8881301879882800,31.0960903167724600,15,3,50,84,54,15695,20944
1349490892,8892,322.3599853515625000,17.9039001464843750,36.5247993469238300,234.0941925048828000,313.0127868652344000,17.9137096405029300,31.1693191528320300,16,3,48,85,54,15694,30976
1349490960,8893,316.3699951171875000,17.9004993438720700,36.5227012634277340,233.4132995605468800,313.1458129882812500,17.9096393585205080,31.2035198211669920,15,3,50,87,52,15694,63350
1349491026,8893,310.3800048828125000,17.9281997680664060,36.5256996154785160,233.0843048095703000,312.0997009277344000,17.9416999816894530,31.2054691314697270,16,3,49,86,52,15696,53287
1349491094,8891,304.1799926757812500,17.9946994781494140,36.5406990051269500,234.1647949218750000,310.0751953125000000,18.0037403106689450,31.1266803741455080,15,3,49,84,52,15694,64666
1349491160,8892,298.1799926757812500,18.0189990997314450,36.5448989868164060,234.3665924072265600,309.0429077148437500,18.0353698730468750,31.1032104492187500,15,3,50,86,53,15694,4586
1349491228,8893,291.9500122070312500,18.1063003540039060,36.5572013854980500,233.9864959716797000,306.5361938476562500,18.1121692657470700,31.0879402160644530,15,3,50,84,52,15694,44800
1349491294,8893,285.9899902343750000,18.1289005279541000,36.5587997436523440,233.6358032226562500,305.6289062500000000,18.1399593353271500,31.0925807952880860,16,3,49,88,54,15691,52412
1349491362,8894,279.7399902343750000,18.1450996398925780,36.5587997436523440,233.1596069335937500,305.0184936523437500,18.1586608886718750,31.1070499420166000,16,3,50,86,52,15691,45969
1349491428,8892,273.6700134277344000,18.1676998138427730,36.5630989074707000,233.1967010498047000,304.2710876464844000,18.1815490722656250,31.0954399108886720,16,3,50,85,53,15692,21402
1349491496,8893,267.5000000000000000,18.1898994445800780,36.5640983581543000,233.3383941650390600,303.6518859863281000,18.2005195617675780,31.0804595947265620,16,3,49,86,53,15690,23813
1349491562,8891,261.5499877929687500,18.2364006042480470,36.5689010620117200,233.3713989257812500,302.0586853027344000,18.2493095397949220,31.0578193664550780,15,3,48,86,52,15690,58605
1349491630,8892,255.7400054931640600,18.2863006591796880,36.5770988464355500,232.9875030517578000,300.6058959960937500,18.2938003540039060,31.0564498901367200,15,3,50,86,54,15690,8037
1349491708,8893,249.3399963378906200,18.3101005554199220,36.5778999328613300,232.5480041503906200,299.4509887695312500,18.3291702270507800,31.0622005462646500,16,3,49,84,52,15690,22711
1349491776,8893,243.9700012207031200,18.3679008483886720,36.5812988281250000,231.7252960205078000,297.7828063964844000,18.3802509307861330,31.0794792175292970,15,3,50,85,54,15691,11989
1349491854,8892,238.0500030517578000,18.4319992065429700,36.5797004699707000,230.8424072265625000,295.7132873535156000,18.4435997009277340,31.0944404602050780,16,3,50,84,53,15691,58182
1349491953,8892,229.7299957275390600,18.5070991516113280,36.5783004760742200,232.0189971923828000,293.2654113769531000,18.5185298919677730,31.0055198669433600,16,3,50,83,52,15692,28832
1349492038,8892,221.2599945068359400,18.5562992095947270,36.5741996765136700,231.5839996337890600,291.4898986816406000,18.5728797912597660,31.0027809143066400,15,3,50,84,53,15693,288
1349492106,8893,213.9400024414062500,18.6012992858886720,36.5770988464355500,233.0776062011718800,290.1990966796875000,18.6123790740966800,30.9143791198730470,16,3,50,84,54,15692,33716
1349492172,8894,206.9299926757812500,18.6131000518798830,36.5718994140625000,234.2198028564453000,289.7508850097656000,18.6261005401611330,30.8539009094238280,16,3,50,84,53,15692,53685
1349492271,8892,197.0399932861328000,18.6380004882812500,36.5583000183105500,236.2306060791015600,289.2784118652344000,18.6405601501464840,30.7532005310058600,15,3,50,86,52,15687,4569
1349492353,8893,189.5099945068359400,18.7238998413085940,36.5517997741699200,238.2097930908203000,286.1391906738281000,18.7366104125976560,30.6194000244140620,15,3,50,85,54,15686,56370
1349492447,8892,182.2799987792968800,18.8290996551513670,36.5735015869140600,237.3683013916015600,282.5362854003906000,18.8468399047851560,30.6112403869628900,16,3,50,84,52,15694,11877
1349492513,8893,178.1799926757812500,18.9237995147705080,36.5718994140625000,237.9835968017578000,279.9512939453125000,18.9259109497070300,30.5489692687988280,15,3,50,84,52,15694,10383
1349492606,8893,173.5800018310547000,18.9158992767334000,36.5633010864257800,239.0305023193359400,279.9371032714844000,18.9263496398925780,30.5003890991210940,16,3,50,85,52,15693,7175
1349492672,8891,171.7100067138672000,18.8983001708984380,36.5502014160156250,240.1253967285156200,280.4442138671875000,18.9108295440673830,30.4565792083740230,16,3,52,84,52,15691,22304
1349492763,8892,169.0299987792968800,18.9575996398925780,36.5553016662597660,241.2693939208984400,278.8345031738281000,18.9600696563720700,30.3833999633789060,15,3,53,86,53,15686,65062
1349492829,8893,165.9600067138672000,18.9948997497558600,36.5584983825683600,241.8529968261718800,277.4215087890625000,19.0032806396484380,30.3384609222412100,16,3,52,88,52,15686,34819
1349492897,8893,162.6900024414062500,19.1011009216308600,36.5736999511718750,241.9561004638672000,274.1776123046875000,19.1024894714355470,30.2917804718017580,15,3,50,86,52,15687,10174
1349492963,8893,159.6499938964843800,19.1345996856689450,36.5732994079589840,243.0995025634765600,273.0394897460937500,19.1372890472412100,30.2251300811767580,15,3,50,88,53,15688,42286
1349493031,8891,156.8500061035156200,19.1588993072509770,36.5736007690429700,244.1194000244140600,272.1600952148437500,19.1641807556152340,30.1679801940917970,16,3,50,86,50,15685,27735
1349493097,8891,154.3699951171875000,19.1707992553710940,36.5727996826171900,244.7570953369140600,271.7665100097656000,19.1762104034423830,30.1342201232910160,16,3,50,86,52,15686,61635
1349493229,8894,148.0800018310547000,19.2091999053955080,36.5693016052246100,246.1714935302734400,270.3716125488281000,19.2188606262207030,30.0532608032226560,16,3,52,86,52,15684,16848
1349493297,8892,144.1499938964843800,19.2500000000000000,36.5730018615722660,246.4880981445312500,269.0465087890625000,19.2593708038330080,30.0220699310302730,15,3,52,87,51,15686,41981
1349493363,8891,140.3200073242187500,19.3036003112792970,36.5724983215332000,247.2859039306640600,267.4024963378906000,19.3096408843994140,29.9657897949218750,15,3,54,89,51,15684,55866
1349493431,8893,136.3500061035156200,19.3588008880615230,36.5716018676757800,247.8182067871093800,265.4461059570312500,19.3694400787353500,29.9170207977294920,16,3,56,91,51,15673,30564
1349493497,8893,132.3399963378906200,19.3992996215820300,36.5696983337402340,247.1047058105468800,264.2278137207031000,19.4066791534423830,29.9328098297119140,15,3,64,96,50,15666,49739
1349493588,8894,127.2300033569336000,19.4403991699218750,36.5703010559082000,244.4284973144531200,262.9175109863281000,19.4467296600341800,30.0347003936767580,15,3,72,98,51,15654,38576
1349493654,8894,124.4700012207031200,19.4582004547119140,36.5718994140625000,243.7859039306640600,262.2738952636719000,19.4664001464843750,30.0553894042968750,16,3,72,98,52,15653,54015
1349493722,8895,121.7500000000000000,19.4662990570068360,36.5732994079589840,243.3500061035156200,261.9790039062500000,19.4754199981689450,30.0710506439209000,16,3,73,101,52,15650,34898
1349493788,8894,119.0500030517578100,19.4768009185791000,36.5750007629394500,242.4866027832031200,261.7092895507812500,19.4836597442626950,30.1063804626464840,16,3,74,100,52,15650,61646
1349493856,8895,116.1399993896484400,19.5041999816894530,36.5773010253906250,241.3300933837890600,260.9173889160156000,19.5078697204589840,30.1486206054687500,15,3,74,100,52,15650,29532
1349493922,8895,113.1100006103515600,19.5104007720947270,36.5789985656738300,240.6083984375000000,260.4041137695312500,19.5235595703125000,30.1748008728027340,15,3,74,104,51,15651,16908
1349493990,8895,109.7399978637695300,19.5571002960205080,36.5843009948730500,240.0135040283203000,259.2956848144531000,19.5574302673339840,30.1874198913574220,16,3,76,100,52,15648,58973
1349494056,8895,106.5000000000000000,19.5970001220703120,36.5877990722656250,239.4918060302734400,257.2936096191406000,19.6186199188232420,30.1854190826416000,15,3,78,102,52,15645,31354
1349494124,8896,103.5400009155273400,19.7299995422363280,36.6040000915527340,238.0382995605468800,254.3639984130859400,19.7081508636474600,30.2145404815673830,15,3,81,104,53,15639,28655
1349494190,8894,101.2600021362304700,19.7749004364013670,36.6076011657714840,236.2828063964843800,252.9066925048828000,19.7526798248291000,30.2767391204834000,15,3,86,103,51,15634,9203
1349494281,8895,97.9899978637695300,19.7998008728027340,36.5978012084960940,236.7622070312500000,251.0267028808593800,19.8101291656494140,30.2303199768066400,16,3,87,105,52,15628,44931
1349494347,8895,94.7900009155273400,20.0000000000000000,36.6245994567871100,237.7272033691406200,245.0980987548828000,19.9912700653076170,30.1096801757812500,15,3,88,104,52,15623,54617
1349494415,8895,91.9499969482421900,20.0536003112792970,36.6349983215332000,233.3166046142578000,243.0818939208984400,20.0528697967529300,30.2889099121093750,16,3,90,105,54,15622,48829
1349494481,8897,89.4800033569336000,20.1930007934570300,36.6459999084472660,231.0133056640625000,238.6013946533203000,20.1897602081298830,30.3400897979736330,15,3,96,108,53,15610,62087
1349494575,8899,86.2200012207031200,20.4458999633789060,36.6755981445312500,229.7944946289062500,230.6333007812500000,20.4331798553466800,30.2957191467285160,17,3,104,112,52,15598,52813
1349494641,8900,83.6299972534179700,20.6511993408203120,36.6347007751464840,233.9291992187500000,223.7519989013672000,20.6433906555175780,30.0131206512451170,15,3,138,112,52,15565,55535
1349494735,8898,79.9000015258789000,21.0820007324218750,36.6453018188476560,247.7565002441406200,208.9602050781250000,21.0952796936035160,29.2056999206542970,16,3,180,136,52,15483,32465
1349494801,8899,76.7300033569336000,21.6093006134033200,36.7322006225585940,239.4759063720703000,192.7530059814453000,21.5905303955078120,29.3694000244140620,20,3,249,141,52,15354,45712
1349494869,8900,73.3499984741211000,21.6490001678466800,36.7276000976562500,235.7212066650390600,190.8421936035156200,21.6489295959472660,29.5159606933593750,28,3,224,143,53,15385,52413
1349494935,8899,69.3799972534179700,21.8572006225585940,36.7363014221191400,236.1629943847656200,185.6835937500000000,21.8066101074218750,29.4314002990722660,27,3,237,145,52,15357,22043
1349495003,8900,65.5299987792968800,22.0755004882812500,36.6750984191894500,239.9082946777343800,177.7630004882812500,22.0487899780273440,29.1641502380371100,17,3,152,123,52,15443,23597
1349495069,8899,62.9099998474121100,22.3001003265380860,36.6419982910156250,250.4490051269531200,170.3657989501953000,22.2750301361084000,28.6150398254394530,16,3,112,117,50,15492,22664
1349495163,8896,60.0499992370605500,22.3747005462646500,36.6194000244140600,257.7116088867187500,167.6777038574218800,22.3572692871093750,28.2801704406738280,21,3,96,114,50,15511,51599
1349495229,8897,57.0699996948242200,22.7311000823974600,36.6237983703613300,259.7802124023437500,158.2346954345703000,22.6462497711181640,28.0821399688720700,20,3,93,112,50,15505,11355
1349495323,8896,53.2200012207031250,23.2591991424560550,36.6016998291015600,259.5928955078125000,138.2931060791015600,23.2570705413818360,27.8509902954101560,16,3,86,112,50,15522,40570
1349495389,8896,51.1599998474121100,23.7488994598388670,36.5936012268066400,256.7892150878906000,125.0962982177734400,23.6618099212646500,27.8072109222412100,16,3,82,108,50,15533,60819
1349495507,8896,49.0699996948242200,24.1895008087158200,36.5372009277343750,253.8721008300781200,109.1741027832031200,24.1507701873779300,27.7372493743896500,16,3,76,106,50,15527,39433
1349495613,8897,45.3100013732910160,24.5370006561279300,36.5206985473632800,257.2739868164062500,98.0045166015625000,24.4942493438720700,27.4671192169189450,22,3,70,108,47,15530,730
1349495679,8897,41.7999992370605500,25.1217994689941400,36.4546012878418000,254.5995941162109400,79.3170928955078100,25.0698890686035160,27.3556404113769530,16,3,71,106,48,15536,13490
1349495747,8897,39.6399993896484400,25.1546993255615230,36.4454994201660160,252.9604949951172000,77.3972473144531200,25.1291007995605470,27.3998394012451170,15,3,71,104,47,15545,7209
1349495813,8896,38.7400016784668000,25.1902008056640620,36.4353981018066400,252.2601013183593800,76.7692031860351600,25.1484794616699220,27.4211292266845700,14,3,72,106,46,15550,61413
1349495955,8896,36.3199996948242200,25.6991004943847660,36.3602981567382800,248.4432983398437500,60.1453018188476560,25.6618900299072270,27.3835697174072270,16,3,68,108,47,15552,2832
1349496060,8898,34.0099983215332000,25.7849006652832030,36.3451995849609400,246.7796936035156200,56.3589210510253900,25.7789993286132800,27.4085502624511720,15,3,64,108,45,15553,46957
1349496126,8896,31.4400005340576170,25.8749008178710940,36.3301010131835940,245.8616027832031200,53.6576995849609400,25.8625907897949220,27.4154796600341800,15,3,64,104,47,15550,17752